Time,TemperatureF,DewpointF,PressureIn,WindDirection,WindDirectionDegrees,WindSpeedMPH,WindSpeedGustMPH,Humidity,HourlyPrecipIn,Conditions,Clouds,dailyrainin,SoftwareType,DateUTC
2013-06-17 00:02:00,54.0,35.0,-100.00,North,5,2.0,10.0,48,0.00,,,-99.99,,2013-06-17 06:02:00,
2013-06-17 00:12:00,53.0,34.0,-100.00,East,85,0.0,4.0,49,0.00,,,-99.99,,2013-06-17 06:12:00,
2013-06-17 00:22:00,53.0,35.0,-100.00,NW,320,0.0,1.0,50,0.00,,,-99.99,,2013-06-17 06:22:00,
2013-06-17 00:33:00,51.0,34.0,-100.00,West,280,4.0,14.0,52,0.00,,,-99.99,,2013-06-17 06:33:00,
2013-06-17 00:43:00,52.0,35.0,-100.00,South,180,1.0,14.0,52,0.00,,,-99.99,,2013-06-17 06:43:00,
2013-06-17 00:53:00,48.0,35.0,-100.00,NNE,25,0.0,10.0,60,0.00,,,-99.99,,2013-06-17 06:53:00,
2013-06-17 01:02:00,48.0,36.0,-100.00,WSW,245,4.0,4.0,62,0.00,,,-99.99,,2013-06-17 07:02:00,
2013-06-17 01:22:00,52.0,39.0,-100.00,SW,230,7.0,9.0,61,0.00,,,-99.99,,2013-06-17 07:22:00,
2013-06-17 01:33:00,51.0,38.0,-100.00,SW,230,10.0,14.0,60,0.00,,,-99.99,,2013-06-17 07:33:00,
2013-06-17 01:42:00,52.0,38.0,-100.00,SW,215,5.0,14.0,59,0.00,,,-99.99,,2013-06-17 07:42:00,
2013-06-17 01:52:00,51.0,38.0,-100.00,SSW,195,1.0,4.0,59,0.00,,,-99.99,,2013-06-17 07:52:00,
2013-06-17 02:01:00,51.0,38.0,-100.00,WNW,290,1.0,4.0,59,0.00,,,-99.99,,2013-06-17 08:01:00,
2013-06-17 02:11:00,52.0,38.0,-100.00,SW,215,4.0,9.0,59,0.00,,,-99.99,,2013-06-17 08:11:00,
2013-06-17 02:22:00,51.0,38.0,-100.00,SW,225,6.0,13.0,59,0.00,,,-99.99,,2013-06-17 08:22:00,
2013-06-17 02:33:00,51.0,38.0,-100.00,WNW,295,4.0,8.0,59,0.00,,,-99.99,,2013-06-17 08:33:00,
2013-06-17 02:43:00,52.0,38.0,-100.00,SSW,205,9.0,14.0,58,0.00,,,-99.99,,2013-06-17 08:43:00,
2013-06-17 02:52:00,53.0,38.0,-100.00,SW,220,12.0,16.0,58,0.00,,,-99.99,,2013-06-17 08:52:00,
2013-06-17 03:02:00,53.0,38.0,-100.00,SW,230,11.0,16.0,57,0.00,,,-99.99,,2013-06-17 09:02:00,
2013-06-17 03:11:00,52.0,38.0,-100.00,SW,220,11.0,14.0,57,0.00,,,-99.99,,2013-06-17 09:11:00,
2013-06-17 03:22:00,52.0,38.0,-100.00,SW,220,14.0,17.0,57,0.00,,,-99.99,,2013-06-17 09:22:00,
2013-06-17 03:34:00,51.0,37.0,-100.00,SW,220,9.0,16.0,58,0.00,,,-99.99,,2013-06-17 09:34:00,
2013-06-17 03:43:00,51.0,37.0,-100.00,SW,225,10.0,14.0,58,0.00,,,-99.99,,2013-06-17 09:43:00,
2013-06-17 03:52:00,51.0,37.0,-100.00,SW,225,14.0,17.0,59,0.00,,,-99.99,,2013-06-17 09:52:00,
2013-06-17 04:02:00,51.0,37.0,-100.00,SW,225,12.0,17.0,59,0.00,,,-99.99,,2013-06-17 10:02:00,
2013-06-17 04:12:00,50.0,37.0,-100.00,SW,235,13.0,18.0,60,0.00,,,-99.99,,2013-06-17 10:12:00,
2013-06-17 04:22:00,50.0,37.0,-100.00,SW,220,14.0,18.0,60,0.00,,,-99.99,,2013-06-17 10:22:00,
2013-06-17 04:33:00,50.0,37.0,-100.00,SW,235,11.0,17.0,61,0.00,,,-99.99,,2013-06-17 10:33:00,
2013-06-17 04:43:00,50.0,37.0,-100.00,SW,225,12.0,17.0,61,0.00,,,-99.99,,2013-06-17 10:43:00,
2013-06-17 04:53:00,49.0,37.0,-100.00,WSW,240,10.0,17.0,62,0.00,,,-99.99,,2013-06-17 10:53:00,
2013-06-17 05:23:00,49.0,37.0,-100.00,WSW,240,11.0,16.0,63,0.00,,,-99.99,,2013-06-17 11:23:00,
2013-06-17 05:33:00,48.0,37.0,-100.00,SW,225,11.0,17.0,64,0.00,,,-99.99,,2013-06-17 11:33:00,
2013-06-17 05:43:00,48.0,37.0,-100.00,SW,220,11.0,16.0,64,0.00,,,-99.99,,2013-06-17 11:43:00,
2013-06-17 05:53:00,48.0,37.0,-100.00,SW,230,11.0,14.0,65,0.00,,,-99.99,,2013-06-17 11:53:00,
2013-06-17 06:02:00,48.0,37.0,-100.00,SW,235,11.0,16.0,66,0.00,,,-99.99,,2013-06-17 12:02:00,
2013-06-17 06:11:00,48.0,38.0,-100.00,SW,235,11.0,17.0,66,0.00,,,-99.99,,2013-06-17 12:11:00,
2013-06-17 06:22:00,51.0,39.0,-100.00,SW,220,4.0,9.0,64,0.00,,,-99.99,,2013-06-17 12:22:00,
2013-06-17 06:33:00,49.0,38.0,-100.00,SW,230,12.0,19.0,66,0.00,,,-99.99,,2013-06-17 12:33:00,
2013-06-17 06:43:00,50.0,39.0,-100.00,SW,230,11.0,19.0,66,0.00,,,-99.99,,2013-06-17 12:43:00,
2013-06-17 06:53:00,52.0,40.0,-100.00,SW,230,7.0,17.0,64,0.00,,,-99.99,,2013-06-17 12:53:00,
2013-06-17 07:01:00,52.0,40.0,-100.00,SW,225,11.0,17.0,64,0.00,,,-99.99,,2013-06-17 13:01:00,
2013-06-17 07:22:00,54.0,42.0,-100.00,SW,225,7.0,11.0,62,0.00,,,-99.99,,2013-06-17 13:22:00,
2013-06-17 07:32:00,55.0,42.0,-100.00,South,170,5.0,12.0,61,0.00,,,-99.99,,2013-06-17 13:32:00,
2013-06-17 07:52:00,58.0,43.0,-100.00,South,180,2.0,6.0,58,0.00,,,-99.99,,2013-06-17 13:52:00,
2013-06-17 08:02:00,58.0,44.0,-100.00,SSW,200,5.0,7.0,57,0.00,,,-99.99,,2013-06-17 14:02:00,
2013-06-17 08:22:00,61.0,44.0,-100.00,East,80,4.0,5.0,54,0.00,,,-99.99,,2013-06-17 14:22:00,
2013-06-17 08:34:00,60.0,44.0,-100.00,ENE,75,6.0,9.0,55,0.00,,,-99.99,,2013-06-17 14:34:00,
2013-06-17 08:53:00,58.0,45.0,-100.00,NE,50,10.0,16.0,62,0.00,,,-99.99,,2013-06-17 14:53:00,
2013-06-17 09:12:00,60.0,47.0,-100.00,East,85,7.0,12.0,62,0.00,,,-99.99,,2013-06-17 15:12:00,
2013-06-17 09:22:00,61.0,48.0,-100.00,ENE,70,6.0,11.0,61,0.00,,,-99.99,,2013-06-17 15:22:00,
2013-06-17 09:33:00,62.0,49.0,-100.00,ENE,65,8.0,13.0,61,0.00,,,-99.99,,2013-06-17 15:33:00,
2013-06-17 09:52:00,62.0,51.0,-100.00,East,80,9.0,12.0,65,0.00,,,-99.99,,2013-06-17 15:52:00,
2013-06-17 10:22:00,64.0,51.0,-100.00,ENE,60,8.0,15.0,64,0.00,,,-99.99,,2013-06-17 16:22:00,
2013-06-17 10:33:00,65.0,52.0,-100.00,ENE,65,10.0,16.0,63,0.00,,,-99.99,,2013-06-17 16:33:00,
2013-06-17 10:53:00,66.0,50.0,-100.00,NE,50,11.0,15.0,57,0.00,,,-99.99,,2013-06-17 16:53:00,
2013-06-17 11:02:00,67.0,50.0,-100.00,NE,50,7.0,12.0,55,0.00,,,-99.99,,2013-06-17 17:02:00,
2013-06-17 11:22:00,68.0,49.0,-100.00,ENE,60,5.0,11.0,51,0.00,,,-99.99,,2013-06-17 17:22:00,
2013-06-17 11:33:00,67.0,49.0,-100.00,NE,45,10.0,13.0,52,0.00,,,-99.99,,2013-06-17 17:33:00,
2013-06-17 11:52:00,69.0,50.0,-100.00,East,80,6.0,10.0,50,0.00,,,-99.99,,2013-06-17 17:52:00,
2013-06-17 12:02:00,69.0,50.0,-100.00,ENE,60,6.0,12.0,50,0.00,,,-99.99,,2013-06-17 18:02:00,
2013-06-17 12:23:00,69.0,49.0,-100.00,ENE,70,4.0,13.0,50,0.00,,,-99.99,,2013-06-17 18:23:00,
2013-06-17 12:33:00,71.0,50.0,-100.00,ENE,75,6.0,12.0,48,0.00,,,-99.99,,2013-06-17 18:33:00,
2013-06-17 12:53:00,73.0,49.0,-100.00,North,355,5.0,14.0,42,0.00,,,-99.99,,2013-06-17 18:53:00,
2013-06-17 13:02:00,74.0,49.0,-100.00,NW,325,4.0,11.0,41,0.00,,,-99.99,,2013-06-17 19:02:00,
2013-06-17 13:22:00,76.0,47.0,-100.00,WNW,285,7.0,15.0,35,0.00,,,-99.99,,2013-06-17 19:22:00,
2013-06-17 13:33:00,74.0,45.0,-100.00,WSW,255,12.0,19.0,35,0.00,,,-99.99,,2013-06-17 19:33:00,
2013-06-17 13:53:00,76.0,44.0,-100.00,West,270,10.0,17.0,31,0.00,,,-99.99,,2013-06-17 19:53:00,
2013-06-17 14:22:00,77.0,42.0,-100.00,West,265,9.0,17.0,29,0.00,,,-99.99,,2013-06-17 20:22:00,
2013-06-17 14:52:00,79.0,42.0,-100.00,NW,305,9.0,17.0,26,0.00,,,-99.99,,2013-06-17 20:52:00,
2013-06-17 15:01:00,78.0,40.0,-100.00,West,260,4.0,14.0,25,0.00,,,-99.99,,2013-06-17 21:01:00,
2013-06-17 15:22:00,73.0,45.0,-100.00,ENE,70,15.0,20.0,37,0.00,,,-99.99,,2013-06-17 21:22:00,
2013-06-17 15:33:00,72.0,46.0,-100.00,East,90,12.0,20.0,39,0.00,,,-99.99,,2013-06-17 21:33:00,
2013-06-17 15:52:00,72.0,48.0,-100.00,ENE,65,14.0,21.0,41,0.00,,,-99.99,,2013-06-17 21:52:00,
2013-06-17 16:01:00,71.0,47.0,-100.00,ENE,75,12.0,23.0,42,0.00,,,-99.99,,2013-06-17 22:01:00,
2013-06-17 16:22:00,70.0,47.0,-100.00,East,95,7.0,14.0,43,0.00,,,-99.99,,2013-06-17 22:22:00,
2013-06-17 16:53:00,70.0,46.0,-100.00,East,85,9.0,14.0,42,0.00,,,-99.99,,2013-06-17 22:53:00,
2013-06-17 17:22:00,72.0,47.0,-100.00,NNE,25,4.0,13.0,40,0.00,,,-99.99,,2013-06-17 23:22:00,
2013-06-17 17:32:00,73.0,46.0,-100.00,SE,125,4.0,8.0,39,0.00,,,-99.99,,2013-06-17 23:32:00,
2013-06-17 18:12:00,75.0,45.0,-100.00,West,270,3.0,6.0,34,0.00,,,-99.99,,2013-06-18 00:12:00,